Location: Newark
(43.7525°N, 1.3283°W)
Time: 05:54:36
(UTC+00:00)

Envisat - Visible Passes

Search period start: 18 November 2019 00:00
Search period end: 28 November 2019 00:00
Orbit: 764 x 766 km, 98.1° (Epoch: 17 November)

Date Brightness Start Highest point End Pass type
(mag) Time Alt. Az. Time Alt. Az. Time Alt. Az.
18 Nov 2.9 17:54:18 10° SSE 17:59:22 77° ENE 18:04:27 10° N visible
18 Nov 6.0 19:36:33 10° WSW 19:38:57 13° W 19:41:22 10° WNW visible
19 Nov 5.6 06:02:32 10° NE 06:06:37 24° E 06:10:40 10° SSE visible
19 Nov 3.5 17:18:08 10° SE 17:22:45 36° ENE 17:27:22 10° N visible
19 Nov 4.9 18:57:26 10° SSW 19:01:48 29° W 19:06:12 10° NW visible
20 Nov 6.5 05:28:18 10° ENE 05:29:24 11° E 05:30:30 10° E visible
20 Nov 3.5 18:19:50 10° S 18:24:52 63° W 18:29:55 10° NNW visible
21 Nov 4.6 06:27:29 10° NNE 06:32:17 41° E 06:37:03 10° SSE visible
21 Nov 3.0 17:43:07 10° SSE 17:48:07 61° ENE 17:53:08 10° N visible
21 Nov 5.7 19:24:18 10° SW 19:27:33 17° W 19:30:48 10° NW visible
22 Nov 5.9 05:51:37 10° NE 05:55:14 19° E 05:58:49 10° SE visible
22 Nov 3.8 17:07:13 10° SE 17:11:34 29° ENE 17:15:55 10° N visible
22 Nov 4.5 18:45:49 10° SSW 18:50:27 36° W 18:55:09 10° NNW visible
23 Nov 3.1 18:08:30 10° S 18:13:35 79° WSW 18:18:41 10° NNW visible
24 Nov 5.0 06:16:23 10° NNE 06:20:57 33° E 06:25:29 10° SSE visible
24 Nov 3.2 17:32:01 10° SE 17:36:53 49° ENE 17:41:46 10° N visible
24 Nov 5.4 19:12:20 10° SW 19:16:09 21° W 19:20:00 10° NW visible
25 Nov 6.0 05:40:54 10° NE 05:43:50 15° E 05:46:44 10° SE visible
25 Nov 4.0 16:56:23 10° ESE 17:00:23 24° ENE 17:04:24 10° NNE visible
25 Nov 4.1 18:34:17 10° S 18:39:08 45° W 18:44:01 10° NNW visible
26 Nov 3.9 06:41:33 10° NNE 06:46:34 56° E 06:51:32 10° S visible
26 Nov 2.9 17:57:13 10° SSE 18:02:18 83° ENE 18:07:25 10° NNW visible
26 Nov 6.1 19:40:02 10° WSW 19:41:58 12° W 19:43:54 10° WNW visible
27 Nov 5.4 06:05:21 10° NE 06:09:36 26° E 06:13:48 10° SSE visible
27 Nov 3.4 17:20:59 10° SE 17:25:40 39° ENE 17:30:22 10° N visible
27 Nov 5.1 19:00:33 10° SSW 19:04:47 26° W 19:09:03 10° NW visible
